[[{"header":{"parameterUnit":"m.s-1","parameterCategory":1,"la1":30.2991,"la2":30.254,"lo1":-89.0895,"lo2":-89.0444,"dy":0.0017,"dx":0.0017,"nx":28,"ny":28,"refTime":"2024-08-03T03:00:00:Z","depth":0,"parameterNumber":2,"parameterNumberName":"U-component_of_WINDS"},"data":[0,0,0,0,0,0,0,0,0,0,0,0,0,0,0,0,0,0,0,0,0,0,0,0,0,0,0,0,0,0,0,0,0,0,0,0,0,0,0,0,0,0,0,0,0,0,0,0,0,0,0,0,0,0,0,0,0,0,-2.5728,-2.5727,0,-2.5684,-2.5683,-2.5683,-2.5602,-2.5601,-2.5599,-2.5598,-2.5554,-2.5554,-2.5554,0,0,0,0,0,0,0,0,0,0,0,0,0,-2.5745,-2.5745,-2.5728,-2.5727,-2.5727,-2.5684,-2.5683,-2.5682,-2.5603,-2.5601,-2.5599,-2.5597,-2.5554,-2.5554,-2.5554,0,0,0,0,0,0,0,0,0,0,0,0,0,-2.5723,-2.5745,-2.5728,-2.5682,-2.5677,-2.5684,-2.5683,-2.5682,-2.5603,-2.5601,-2.5598,-2.5596,-2.5554,-2.5554,-2.5554,-2.5603,0,0,-2.5556,-2.5556,0,0,0,0,0,0,0,0,-2.5725,-2.5723,-2.5689,-2.5685,-2.568,-2.5646,-2.5673,-2.5656,-2.5604,-2.5631,-2.5598,-2.5595,-2.5586,-2.5584,-2.5581,-2.5601,-2.5599,-2.5556,-2.5556,-2.5556,-2.5556,0,0,0,0,0,0,0,-2.5726,-2.5724,-2.571,-2.5689,-2.5683,-2.5664,-2.5658,-2.5669,-2.5622,-2.5629,-2.5623,-2.5619,-2.5583,-2.5581,-2.5579,-2.5598,-2.5556,-2.5556,-2.5556,-2.5556,-2.5657,-2.5659,0,0,0,0,0,0,-2.5734,-2.5726,-2.5712,-2.5709,-2.5697,-2.5665,-2.5659,-2.5659,-2.5622,-2.5614,-2.5621,-2.5615,-2.5581,-2.5579,-2.5577,-2.5632,-2.5556,-2.5556,-2.5557,-2.5655,-2.5658,-2.566,0,0,0,0,0,0,-2.5735,-2.5734,-2.5714,-2.5716,-2.5712,-2.5668,-2.5669,-2.566,-2.5657,-2.5616,-2.5607,-2.5626,-2.5579,-2.5577,-2.5597,-2.5629,-2.5557,-2.5557,-2.5652,-2.5656,-2.5659,-2.5742,0,0,0,0,0,0,-2.5736,-2.5734,-2.5752,-2.5717,-2.5712,-2.5734,-2.567,-2.566,-2.5657,-2.565,-2.5619,-2.5611,-2.5577,-2.5597,-2.5598,-2.5629,-2.5557,-2.5649,-2.5653,-2.5658,-2.5736,-2.5748,-2.5758,0,0,0,0,0,-2.5737,-2.5777,-2.5753,-2.5752,-2.5733,-2.5736,-2.5733,-2.5692,-2.566,-2.5678,-2.5652,-2.5612,-2.5626,-2.56,-2.56,-2.5631,-2.5646,-2.5652,-2.5657,-2.5731,-2.5746,-2.5758,0,0,0,0,0,0,-2.5817,-2.5772,-2.5745,-2.5775,-2.576,-2.5722,-2.5743,-2.5709,-2.5703,-2.5696,-2.5646,-2.564,-2.5668,-2.5651,-2.5623,-2.5677,-2.563,-2.5636,-2.5686,-2.57,-2.5711,-2.5714,-2.5558,0,0,0,0,0,-2.5839,-2.5844,-2.5804,-2.5835,-2.5829,-2.5788,-2.5787,-2.5757,-2.574,-2.5733,-2.5709,-2.5694,-2.5695,-2.5696,-2.5695,-2.5734,-2.5726,-2.5756,-2.5767,-2.5776,-2.5781,-2.5802,-2.5814,-2.5678,-2.5678,-2.5678,0,0,-2.5882,-2.5858,-2.5865,-2.5851,-2.5835,-2.5843,-2.5783,-2.5793,-2.5799,-2.5735,-2.5753,-2.5735,-2.5715,-2.5745,-2.5757,-2.5733,-2.5818,-2.5783,-2.5791,-2.5791,-2.5809,-2.5822,-2.5833,-2.5682,-2.5681,-2.5681,0,0,-2.5966,-2.5949,-2.5972,-2.5959,-2.5937,-2.5909,-2.5915,-2.5883,-2.5868,-2.5885,-2.5838,-2.5845,-2.5847,-2.5835,-2.5829,-2.5911,-2.5874,-2.5912,-2.5969,-2.5989,-2.6,-2.6009,-2.6039,-2.605,-2.5917,-2.5918,-2.5918,0,-2.6024,-2.6033,-2.5989,-2.6003,-2.5998,-2.5941,-2.5965,-2.5954,-2.5933,-2.5932,-2.5905,-2.5907,-2.589,-2.5917,-2.5937,-2.5934,-2.594,-2.5915,-2.6002,-2.6011,-2.6019,-2.6047,-2.6058,-2.5922,-2.5922,-2.5921,-2.5921,0,-2.6105,-2.6113,-2.6135,-2.6115,-2.6113,-2.6133,-2.6092,-2.6096,-2.6066,-2.6042,-2.6061,-2.6039,-2.6032,-2.6036,-2.6008,-2.606,-2.6045,-2.6011,-2.5963,-2.6037,-2.6062,-2.6073,-2.5929,-2.5927,-2.5926,-2.5925,0,0,-2.6238,-2.6195,-2.6204,-2.6195,-2.6167,-2.6172,-2.6189,-2.6182,-2.6187,-2.6175,-2.6188,-2.6192,-2.6161,-2.6154,-2.6124,-2.6142,-2.6209,-2.6105,-2.6104,-2.6126,-2.6266,-2.6292,-2.6304,-2.6185,-2.6187,-2.6188,-2.6267,0,-2.6316,-2.6341,-2.6303,-2.6338,-2.6345,-2.6291,-2.6306,-2.6292,-2.627,-2.6273,-2.6249,-2.6253,-2.6211,-2.6207,-2.6222,-2.6198,-2.6236,-2.6191,-2.6198,-2.6198,-2.6204,-2.6317,-2.6345,-2.642,-2.6277,-2.6278,-2.628,0,-2.641,-2.6402,-2.6438,-2.6409,-2.641,-2.6424,-2.6416,-2.6419,-2.6402,-2.6385,-2.6379,-2.6343,-2.6359,-2.6313,-2.6334,-2.6304,-2.6305,-2.6294,-2.6295,-2.6294,-2.6243,-2.632,-2.6443,-2.6455,-2.6295,-2.6293,-2.6292,0,-2.6503,-2.6502,-2.6523,-2.6517,-2.6484,-2.6495,-2.6482,-2.6462,-2.6461,-2.6454,-2.6453,-2.6448,-2.6445,-2.6443,-2.6407,-2.6377,-2.6434,-2.6384,-2.642,-2.6422,-2.6434,-2.6434,-2.656,-2.6435,-2.6435,-2.6435,-2.6434,0,-2.6594,-2.6618,-2.6565,-2.6578,-2.6604,-2.656,-2.6587,-2.6568,-2.6552,-2.6561,-2.6515,-2.6525,-2.6477,-2.6483,-2.6455,-2.6477,-2.6477,-2.6464,-2.6456,-2.6468,-2.647,-2.6467,-2.6461,-2.6438,-2.6437,-2.6436,-2.6436,0,-2.6702,-2.6667,-2.6687,-2.6654,-2.6647,-2.6667,-2.6639,-2.6651,-2.6627,-2.6639,-2.664,-2.6602,-2.6606,-2.657,-2.6567,-2.6549,-2.6584,-2.6567,-2.659,-2.6585,-2.6623,-2.662,-2.6752,-2.6767,-2.6633,-2.6634,-2.6635,0,-2.6762,-2.678,-2.6749,-2.6752,-2.6741,-2.6746,-2.6744,-2.6702,-2.6703,-2.6686,-2.6699,-2.6699,-2.6697,-2.6706,-2.6679,-2.6677,-2.666,-2.6706,-2.6659,-2.667,-2.6661,-2.666,-2.6662,-2.6716,-2.6717,-2.6719,-2.672,0,-2.6873,-2.6855,-2.6855,-2.6849,-2.6849,-2.6842,-2.6833,-2.6838,-2.6793,-2.6796,-2.6799,-2.6798,-2.6795,-2.6796,-2.6789,-2.6776,-2.6741,-2.6735,-2.6743,-2.6755,-2.6768,-2.6762,-2.6617,-2.6732,-2.6731,-2.673,-2.6729,-2.6729,-2.6959,-2.6972,-2.6953,-2.6954,-2.6943,-2.6936,-2.6945,-2.6922,-2.6924,-2.6918,-2.6894,-2.6902,-2.6885,-2.6872,-2.6862,-2.6869,-2.6846,-2.6858,-2.6861,-2.6865,-2.6872,-2.6767,-2.6867,-2.6867,-2.6866,-2.6866,-2.6866,0,-2.7067,-2.7053,-2.7055,-2.7043,-2.7045,-2.7011,-2.6999,-2.7003,-2.7011,-2.6998,-2.6997,-2.7002,-2.7003,-2.6976,-2.6974,-2.6984,-2.6968,-2.6985,-2.6984,-2.6982,-2.6892,-2.6885,-2.6998,-2.6998,-2.6998,-2.6998,-2.6998,-2.6998,-2.7124,-2.7145,-2.7125,-2.7141,-2.7125,-2.7133,-2.7129,-2.7122,-2.7112,-2.7119,-2.712,-2.7102,-2.7084,-2.7081,-2.7081,-2.7073,-2.7075,-2.7097,-2.7084,-2.7001,-2.6988,-2.6976,-2.6969,-2.7098,-2.7098,-2.7173,-2.7174,-2.7175]},{"header":{"parameterUnit":"m.s-1","parameterCategory":1,"la1":30.2991,"la2":30.254,"lo1":-89.0895,"lo2":-89.0444,"dy":0.0017,"dx":0.0017,"nx":28,"ny":28,"refTime":"2024-08-03T03:00:00:Z","depth":0,"parameterNumber":3,"parameterNumberName":"V-component_of_WINDS"},"data":[0,0,0,0,0,0,0,0,0,0,0,0,0,0,0,0,0,0,0,0,0,0,0,0,0,0,0,0,0,0,0,0,0,0,0,0,0,0,0,0,0,0,0,0,0,0,0,0,0,0,0,0,0,0,0,0,0,0,-1.3984,-1.3984,0,-1.4025,-1.4026,-1.4026,-1.4036,-1.4036,-1.4036,-1.4036,-1.4076,-1.4077,-1.4078,0,0,0,0,0,0,0,0,0,0,0,0,0,-1.3912,-1.3913,-1.3984,-1.3984,-1.3985,-1.4025,-1.4026,-1.4026,-1.4036,-1.4036,-1.4036,-1.4036,-1.4075,-1.4077,-1.4079,0,0,0,0,0,0,0,0,0,0,0,0,0,-1.3947,-1.3914,-1.3984,-1.3995,-1.3996,-1.4025,-1.4026,-1.4026,-1.4036,-1.4036,-1.4036,-1.4035,-1.4075,-1.4077,-1.4079,-1.4098,0,0,-1.4085,-1.4086,0,0,0,0,0,0,0,0,-1.3945,-1.395,-1.3993,-1.3994,-1.3996,-1.4025,-1.4015,-1.405,-1.4037,-1.4021,-1.4036,-1.4035,-1.4059,-1.4062,-1.4071,-1.41,-1.4102,-1.4085,-1.4086,-1.4087,-1.4087,0,0,0,0,0,0,0,-1.3943,-1.3948,-1.4,-1.3993,-1.3995,-1.3997,-1.4002,-1.4022,-1.4042,-1.4023,-1.4023,-1.4028,-1.406,-1.4069,-1.4072,-1.4103,-1.4085,-1.4087,-1.4088,-1.4089,-1.415,-1.415,0,0,0,0,0,0,-1.3939,-1.3946,-1.3999,-1.4001,-1.3969,-1.3999,-1.4004,-1.4016,-1.4042,-1.4045,-1.4028,-1.4029,-1.4066,-1.407,-1.4073,-1.4098,-1.4087,-1.4089,-1.409,-1.4149,-1.415,-1.415,0,0,0,0,0,0,-1.3937,-1.3943,-1.3997,-1.3974,-1.3981,-1.4,-1.4014,-1.4017,-1.4026,-1.4046,-1.405,-1.4034,-1.4066,-1.4071,-1.4092,-1.41,-1.409,-1.4091,-1.4149,-1.415,-1.415,-1.4148,0,0,0,0,0,0,-1.3935,-1.3943,-1.3951,-1.3974,-1.3982,-1.4016,-1.4015,-1.4018,-1.403,-1.403,-1.4052,-1.4056,-1.4066,-1.4089,-1.4094,-1.4102,-1.4093,-1.4148,-1.4149,-1.415,-1.4147,-1.4148,-1.4149,0,0,0,0,0,-1.3932,-1.3948,-1.3951,-1.3958,-1.3993,-1.4017,-1.4021,-1.4033,-1.403,-1.4039,-1.4051,-1.4055,-1.4098,-1.4091,-1.4097,-1.4106,-1.4148,-1.4149,-1.415,-1.4147,-1.4148,-1.4149,0,0,0,0,0,0,-1.3925,-1.3952,-1.3955,-1.3979,-1.3996,-1.4018,-1.4029,-1.4034,-1.4051,-1.405,-1.4064,-1.4068,-1.4089,-1.4099,-1.4092,-1.4126,-1.4123,-1.4125,-1.4119,-1.412,-1.4121,-1.4118,-1.4095,0,0,0,0,0,-1.3926,-1.3944,-1.3966,-1.3985,-1.3993,-1.4009,-1.402,-1.4028,-1.4045,-1.4052,-1.4066,-1.4082,-1.4099,-1.411,-1.4127,-1.4149,-1.4153,-1.4157,-1.4158,-1.4159,-1.4161,-1.4173,-1.4175,-1.4154,-1.4154,-1.4154,0,0,-1.3929,-1.3946,-1.3956,-1.3984,-1.3997,-1.4015,-1.4015,-1.4033,-1.4046,-1.4054,-1.4076,-1.4087,-1.4105,-1.4127,-1.4137,-1.4136,-1.4168,-1.416,-1.4161,-1.4162,-1.4174,-1.4176,-1.4178,-1.4154,-1.4154,-1.4154,0,0,-1.3943,-1.3957,-1.3975,-1.3988,-1.4009,-1.402,-1.4024,-1.4046,-1.4054,-1.4075,-1.4082,-1.4096,-1.4126,-1.4139,-1.4149,-1.4167,-1.4171,-1.4172,-1.4177,-1.4189,-1.419,-1.4192,-1.4198,-1.42,-1.4174,-1.4174,-1.4174,0,-1.3944,-1.3971,-1.3983,-1.4001,-1.4013,-1.4021,-1.4039,-1.4051,-1.4076,-1.4083,-1.4082,-1.4119,-1.4132,-1.4157,-1.4161,-1.4169,-1.4174,-1.417,-1.4189,-1.4191,-1.4192,-1.4199,-1.4201,-1.4174,-1.4174,-1.4174,-1.4174,0,-1.397,-1.3989,-1.4,-1.4025,-1.4038,-1.4055,-1.407,-1.4081,-1.4087,-1.4098,-1.412,-1.4135,-1.4156,-1.4162,-1.4168,-1.4187,-1.4186,-1.4187,-1.4184,-1.4194,-1.42,-1.4203,-1.4174,-1.4174,-1.4174,-1.4174,0,0,-1.3981,-1.4012,-1.4016,-1.4027,-1.405,-1.4065,-1.4082,-1.4102,-1.4112,-1.4128,-1.4143,-1.4167,-1.4168,-1.4179,-1.4187,-1.4197,-1.421,-1.4196,-1.4197,-1.4198,-1.4232,-1.4232,-1.4235,-1.4212,-1.4213,-1.4213,-1.4231,0,-1.3998,-1.4031,-1.4043,-1.4069,-1.4086,-1.4094,-1.4109,-1.4124,-1.4134,-1.415,-1.416,-1.4178,-1.4177,-1.4184,-1.4194,-1.4206,-1.4217,-1.4205,-1.4226,-1.4226,-1.4222,-1.4238,-1.4238,-1.4254,-1.4233,-1.4234,-1.4234,0,-1.4023,-1.404,-1.4069,-1.409,-1.4097,-1.4111,-1.413,-1.4144,-1.4161,-1.4168,-1.4181,-1.4187,-1.4205,-1.4201,-1.4225,-1.4217,-1.4226,-1.4233,-1.4233,-1.4236,-1.4231,-1.4241,-1.4259,-1.4261,-1.4238,-1.4237,-1.4237,0,-1.4029,-1.4059,-1.408,-1.4089,-1.4114,-1.4123,-1.4134,-1.415,-1.4162,-1.4178,-1.4185,-1.4203,-1.4213,-1.4226,-1.4237,-1.4233,-1.426,-1.4257,-1.4266,-1.4266,-1.4272,-1.4271,-1.4291,-1.4277,-1.4277,-1.4277,-1.4277,0,-1.4047,-1.4064,-1.4083,-1.4096,-1.4115,-1.4127,-1.4146,-1.4156,-1.4171,-1.4186,-1.4193,-1.4206,-1.422,-1.4234,-1.4243,-1.4262,-1.4266,-1.4271,-1.4273,-1.4271,-1.427,-1.4277,-1.4277,-1.4277,-1.4277,-1.4277,-1.4277,0,-1.4057,-1.407,-1.4094,-1.4115,-1.4121,-1.4134,-1.4152,-1.4164,-1.4174,-1.4192,-1.4197,-1.4213,-1.4231,-1.4243,-1.4265,-1.4271,-1.4291,-1.4293,-1.4286,-1.4287,-1.4295,-1.4294,-1.4321,-1.4325,-1.4307,-1.4307,-1.4308,0,-1.4068,-1.4081,-1.4104,-1.4115,-1.4125,-1.4142,-1.4154,-1.4166,-1.4178,-1.4198,-1.4208,-1.4226,-1.4241,-1.4269,-1.4282,-1.4299,-1.4301,-1.4309,-1.4304,-1.4301,-1.4302,-1.4301,-1.4302,-1.431,-1.4311,-1.4311,-1.4311,0,-1.4086,-1.4092,-1.4109,-1.4128,-1.4142,-1.4157,-1.4172,-1.418,-1.4195,-1.4207,-1.4226,-1.4238,-1.4261,-1.4279,-1.4297,-1.4307,-1.4311,-1.4312,-1.4315,-1.4313,-1.4309,-1.4311,-1.4288,-1.4312,-1.4312,-1.4312,-1.4312,-1.4311,-1.4097,-1.4109,-1.4127,-1.4146,-1.4158,-1.4172,-1.4185,-1.4197,-1.4213,-1.4233,-1.4239,-1.4258,-1.4274,-1.4299,-1.4309,-1.4324,-1.4323,-1.4327,-1.4328,-1.4329,-1.4329,-1.4306,-1.4327,-1.4327,-1.4327,-1.4327,-1.4327,0,-1.4116,-1.4127,-1.4144,-1.4166,-1.418,-1.4183,-1.42,-1.4212,-1.4229,-1.4243,-1.4258,-1.4279,-1.4297,-1.4311,-1.4328,-1.4337,-1.4339,-1.4341,-1.4341,-1.4343,-1.4329,-1.4325,-1.4339,-1.4339,-1.4339,-1.4339,-1.4339,-1.4339,-1.4127,-1.4148,-1.4156,-1.4183,-1.4194,-1.4214,-1.4223,-1.4236,-1.4248,-1.4271,-1.4286,-1.4295,-1.4309,-1.4328,-1.4343,-1.4347,-1.4353,-1.4355,-1.4359,-1.4345,-1.4344,-1.4343,-1.4339,-1.4356,-1.4356,-1.4371,-1.4372,-1.4372]}]]